Theta_e
312 310 309 308 309 309 309 309 309 309 311 312 312 319 329 324 324 332 330 325 327 326 324 326 327 328 328 325 324 321 318 319 319 319 318 319 321 321 321 323 323 325 326 327 326 324 323 324 322 320 322 322 321 321 319 317 318 321 323 323 321 319 320 318 315 318 321 321 321 323 323 322 322 324 325 323 322 323 322 321 321 320 318 317 317 316 320
312 309 308 308 309 308 308 308 308 308 308 307 311 322 326 321 324 331 330 327 326 324 323 325 328 328 326 325 324 321 319 320 319 319 319 319 320 321 323 323 322 324 324 324 325 324 323 323 322 321 323 322 321 320 317 317 319 322 324 323 320 318 320 318 315 315 318 321 323 325 325 325 323 325 327 325 325 326 325 322 321 320 319 320 319 317 319
312 309 308 308 308 308 308 307 308 309 307 305 312 322 323 321 322 323 329 330 325 321 321 324 327 327 326 326 324 322 321 320 321 321 320 320 321 322 324 323 321 322 322 324 326 325 324 325 323 321 323 323 320 319 317 318 320 322 323 322 319 319 322 320 316 317 320 322 323 323 322 323 323 324 325 326 327 328 325 322 320 319 321 322 320 319 321
311 309 308 308 308 308 308 308 307 308 307 305 311 321 322 322 324 319 323 327 322 320 321 321 324 326 328 327 324 324 322 321 321 321 321 321 319 322 323 322 322 323 323 324 326 324 323 326 325 322 323 323 320 319 319 319 322 323 321 320 319 321 323 320 319 321 323 322 324 325 322 320 321 322 323 324 325 326 326 324 320 321 323 321 320 324 325
311 309 308 308 308 307 307 308 307 308 307 305 312 322 323 322 324 322 324 326 320 320 319 318 321 324 326 326 324 323 323 323 322 319 320 322 320 320 322 321 323 324 324 325 326 324 322 323 324 323 324 324 321 319 318 321 325 324 319 317 320 322 322 322 321 322 324 324 324 324 322 321 321 322 323 324 324 324 326 325 322 323 323 318 319 326 325
310 309 308 308 308 307 307 307 307 308 307 306 313 325 326 323 324 324 328 329 323 321 320 320 321 320 322 325 325 323 323 324 325 321 319 321 321 321 321 322 322 323 324 325 326 327 324 322 323 324 325 326 323 320 318 321 325 323 319 319 322 323 323 325 323 321 323 325 323 322 322 323 323 324 324 325 326 326 327 326 324 323 323 322 323 326 324
309 308 308 308 307 307 307 307 307 308 308 307 313 323 325 325 328 327 330 330 326 325 325 325 324 322 321 322 324 324 323 324 326 325 322 322 322 321 322 323 321 321 324 325 326 327 324 322 324 326 326 327 325 323 323 323 323 322 322 324 324 323 324 326 324 320 322 325 323 322 322 321 323 325 325 325 327 329 329 328 326 325 325 325 324 324 323
309 308 308 308 307 307 307 306 307 308 308 310 317 323 325 327 329 329 329 329 329 327 326 327 326 324 323 321 322 325 325 325 326 326 326 324 323 322 322 322 321 321 324 325 326 328 326 325 327 326 326 327 325 325 326 326 325 322 324 327 325 323 323 326 323 319 320 324 324 323 323 322 323 324 325 327 330 331 333 332 329 326 323 322 322 322 322
308 307 307 307 307 306 306 306 307 307 308 315 323 325 326 328 327 325 322 322 326 326 324 325 325 323 323 322 322 324 325 325 326 327 327 326 324 323 322 322 322 322 324 324 325 327 328 328 326 324 325 325 324 325 325 326 327 325 325 328 327 324 323 323 322 318 318 323 325 324 324 323 324 325 330 335 331 326 327 329 327 325 324 323 322 320 320
308 307 307 307 307 306 306 306 307 306 308 318 325 324 325 328 326 324 323 322 322 323 323 325 323 321 323 322 323 324 323 323 325 327 327 325 324 324 324 324 323 324 325 325 325 326 327 327 325 323 322 322 322 323 323 323 325 325 327 327 327 325 323 321 321 318 317 322 324 323 321 321 322 325 331 334 328 321 323 325 324 326 326 322 321 320 320
308 307 307 307 306 306 306 305 306 305 307 314 320 322 324 325 323 322 324 325 324 322 322 325 325 322 322 321 322 323 323 322 324 326 327 326 324 324 325 326 325 325 327 326 325 326 326 325 324 322 321 320 321 322 321 320 320 322 326 327 326 326 325 325 324 319 316 319 322 322 320 319 321 324 328 329 326 324 326 326 325 326 327 325 324 323 323
307 307 307 307 306 306 306 305 305 305 304 308 314 319 323 322 321 320 320 323 326 324 322 323 325 325 323 321 322 323 323 323 323 325 327 328 326 324 324 326 326 327 328 327 326 326 323 321 320 319 318 319 319 320 320 320 318 318 322 326 327 327 325 325 324 321 317 317 318 318 318 321 324 326 325 324 323 323 324 325 325 325 325 325 325 325 325
307 307 306 306 306 306 306 305 305 305 304 305 311 318 321 320 321 322 321 321 324 326 325 323 322 323 324 323 322 323 323 322 323 325 326 328 327 326 324 324 325 326 328 327 326 324 321 320 319 318 318 318 319 320 319 319 319 319 320 323 326 328 326 322 321 320 318 316 314 315 319 324 328 327 323 320 320 321 322 323 323 324 324 324 324 324 324
306 306 306 306 306 306 305 305 305 304 304 304 307 313 317 319 321 323 324 323 324 326 327 327 325 323 324 324 323 324 324 323 324 325 325 327 329 329 326 323 324 327 327 325 324 321 319 320 320 319 319 319 318 319 319 319 319 319 320 322 324 326 327 325 322 320 318 316 314 316 317 320 326 327 323 320 320 322 323 323 323 323 323 323 324 323 322
306 306 306 306 306 306 305 305 304 304 304 303 304 310 315 318 319 320 323 324 324 324 325 326 327 325 325 325 324 324 325 324 323 325 326 328 329 328 325 323 325 326 323 322 321 319 319 320 319 316 316 316 316 317 318 319 318 319 321 322 322 324 326 326 323 321 319 316 316 316 315 315 322 327 324 322 322 322 322 321 321 322 322 321 323 323 321
306 306 306 306 306 306 305 305 304 304 304 303 305 311 316 316 316 318 321 323 324 324 323 323 325 326 327 328 326 326 325 324 324 325 326 327 327 325 324 325 324 323 320 319 320 320 320 318 317 315 314 315 315 316 317 318 318 319 322 323 323 323 323 324 323 321 320 318 317 317 314 315 323 328 324 322 322 321 320 320 320 323 324 322 322 322 321
306 306 306 306 306 306 305 305 304 304 304 304 305 309 315 316 316 317 320 322 323 322 321 319 321 324 326 327 328 326 324 323 324 325 326 326 325 324 325 325 323 321 320 319 320 322 321 319 317 315 315 316 316 316 318 319 318 320 322 323 323 324 323 322 321 319 320 320 319 318 315 317 325 328 323 322 323 321 320 320 321 324 325 323 322 322 321
306 305 306 306 306 306 305 305 304 303 304 304 303 306 312 315 314 315 318 320 321 320 319 318 320 322 324 325 326 327 326 324 324 324 324 323 324 324 325 324 323 322 321 320 320 321 320 319 318 315 314 317 317 317 318 318 318 321 324 323 321 322 323 322 320 319 318 318 318 317 316 320 326 328 324 323 322 320 318 320 323 326 325 323 323 323 321
305 305 305 306 305 305 305 305 304 303 304 304 303 306 311 314 314 314 317 319 321 321 320 319 321 323 323 324 324 325 326 326 325 325 324 323 323 324 324 324 323 322 321 321 321 321 320 319 320 317 314 315 317 319 320 319 318 320 324 324 321 320 320 320 320 319 317 317 318 316 317 323 328 327 325 322 317 315 318 323 326 326 324 323 322 322 322
306 305 305 306 305 305 305 304 303 303 303 303 303 306 311 313 313 313 315 318 320 320 321 320 322 323 323 322 323 323 324 326 326 325 325 324 323 324 325 325 324 322 322 321 321 321 320 318 320 319 315 314 318 321 320 319 319 320 321 323 323 322 320 318 319 320 318 317 316 315 316 324 329 327 326 323 316 315 320 324 324 323 322 323 322 322 322
306 305 305 305 305 305 304 304 303 303 303 303 303 305 310 313 313 313 313 315 316 318 320 321 321 321 322 322 322 322 323 325 326 325 326 327 327 326 326 325 324 321 322 322 320 320 320 319 320 320 317 317 319 321 319 317 318 319 320 322 323 323 321 318 319 321 318 315 316 318 320 327 329 327 326 324 320 321 324 322 320 320 321 322 322 323 324
305 305 305 305 305 304 304 303 303 303 303 303 303 305 310 313 314 313 313 313 314 315 317 318 317 317 317 318 319 320 321 322 323 323 325 327 328 327 326 325 324 322 322 322 321 321 320 320 319 319 318 318 318 320 320 317 316 319 320 321 320 322 325 324 324 324 321 318 320 324 327 329 329 327 325 323 323 325 325 323 322 322 322 321 320 322 324
304 305 305 305 304 304 304 304 303 303 304 303 303 305 310 312 312 312 312 313 313 314 315 316 316 316 315 315 317 318 318 319 319 321 323 325 326 326 325 325 325 323 322 324 324 323 321 321 321 319 319 319 319 319 320 318 317 319 319 319 320 321 325 327 327 325 322 322 323 324 325 327 328 326 324 323 323 323 322 322 322 322 322 322 321 321 323
303 305 305 305 304 304 303 303 303 303 303 303 303 304 307 309 310 310 311 312 313 314 315 315 314 315 315 315 315 316 316 316 317 319 322 324 325 325 325 326 327 327 328 330 330 327 323 323 323 322 321 322 320 319 318 318 319 320 319 319 321 322 322 324 325 323 320 319 320 320 321 323 325 324 323 324 323 323 323 322 322 322 323 324 323 323 324
304 305 305 304 304 304 303 303 303 303 303 303 303 304 306 308 309 310 311 312 313 314 316 316 315 315 315 315 315 316 316 316 316 317 319 321 323 324 324 325 327 329 330 330 330 327 324 323 324 323 323 323 321 320 319 318 319 321 319 318 320 322 322 322 323 323 321 318 319 320 320 321 321 321 320 321 321 322 324 324 323 323 324 324 324 324 323
305 306 305 304 304 304 304 303 303 304 303 303 303 304 306 308 309 309 310 310 311 313 315 316 316 316 316 316 316 316 316 316 315 315 317 318 321 322 322 324 327 329 328 327 327 326 324 323 322 321 322 322 321 320 320 319 319 320 320 321 322 322 322 322 322 322 322 320 320 320 319 319 320 320 320 321 321 321 323 323 322 322 322 322 323 323 323
306 306 305 304 304 304 304 303 303 304 304 303 303 304 306 307 307 308 309 309 311 313 314 315 316 316 317 317 317 316 316 315 315 315 316 317 318 319 321 323 326 327 326 325 325 324 323 322 322 320 320 320 320 321 321 321 321 320 320 322 324 322 321 322 321 321 320 320 320 321 320 318 319 319 320 322 322 322 323 322 321 321 320 320 321 321 322
307 306 304 304 304 304 303 303 303 304 304 303 303 305 305 306 306 307 307 308 309 312 312 313 314 315 316 317 317 317 316 315 314 315 315 315 316 317 319 321 322 324 325 325 324 323 322 322 322 320 320 320 320 321 322 323 323 323 322 322 323 323 323 323 321 321 321 320 322 323 322 320 320 321 321 321 321 321 321 321 321 321 320 320 320 320 321
307 306 304 304 304 304 303 303 303 304 304 303 304 306 307 307 306 306 306 306 307 309 309 310 311 312 314 316 317 317 317 315 315 315 314 314 315 316 317 320 321 322 323 323 322 322 322 322 321 320 321 322 321 320 321 322 322 323 323 323 323 324 325 324 323 323 322 321 321 322 322 320 319 319 320 320 320 320 320 319 319 319 319 319 319 319 320
306 305 305 305 304 304 303 303 303 304 303 304 306 306 307 307 307 306 306 306 307 308 308 309 310 311 312 314 314 315 316 316 315 315 315 314 314 315 316 318 320 321 322 322 321 321 321 321 321 321 322 323 322 321 321 322 322 322 322 322 323 323 323 323 323 323 322 320 320 321 321 320 318 317 317 318 318 319 320 319 318 318 318 318 318 318 318
306 305 305 305 304 303 302 303 304 303 303 305 306 306 306 307 307 306 305 305 306 308 308 308 309 310 309 311 313 314 315 316 315 314 315 314 314 315 315 316 319 321 322 321 320 321 321 321 321 321 321 322 323 322 321 322 323 322 321 322 323 322 322 322 323 322 321 320 320 320 320 319 318 316 316 317 317 318 319 320 318 318 319 319 317 317 317
305 305 305 305 304 303 302 303 304 304 304 305 306 306 306 307 306 304 304 305 307 308 308 308 309 309 310 311 312 312 313 315 316 315 315 315 315 315 315 316 317 319 320 321 321 321 321 322 322 321 320 322 323 322 321 322 323 323 322 321 321 320 320 321 321 320 319 319 320 320 320 319 317 316 316 317 318 318 318 317 316 317 318 318 318 317 316
304 304 304 304 303 302 302 303 303 303 304 305 305 305 305 305 304 304 304 306 308 309 309 308 309 310 311 312 312 313 313 314 316 315 315 316 316 315 315 315 316 317 319 320 321 321 321 321 322 320 320 321 322 321 322 322 322 322 321 320 320 319 320 320 320 319 318 317 318 319 318 317 316 316 316 317 317 317 316 315 314 315 316 317 317 318 318
303 303 304 304 303 302 302 303 303 304 304 304 305 305 305 305 304 303 304 306 308 308 309 309 309 310 311 310 312 314 315 314 315 315 315 316 316 316 316 316 316 317 318 319 319 320 320 320 321 321 320 320 320 321 322 322 321 321 320 320 320 320 319 318 318 317 316 316 316 316 316 316 316 316 316 316 316 316 315 314 314 314 315 315 316 318 318
302 303 303 303 302 301 302 303 303 304 304 304 305 306 305 304 304 303 304 306 308 307 307 308 308 309 311 310 311 314 315 315 315 315 314 315 316 316 316 316 317 317 317 317 318 320 320 319 319 319 319 320 320 321 321 320 319 320 320 319 319 319 318 317 317 316 315 315 315 315 315 315 315 315 316 316 315 314 315 314 313 313 314 315 316 316 316
302 302 302 302 302 302 303 303 304 304 305 305 305 305 304 303 304 304 304 305 307 307 308 309 308 308 310 310 311 313 314 316 316 315 314 315 317 317 316 317 317 317 316 317 317 318 318 318 318 317 318 319 319 319 318 318 318 318 318 319 319 318 318 317 316 316 315 315 315 315 315 315 316 315 316 316 315 314 314 314 314 314 313 314 315 316 316
302 302 302 302 303 302 303 304 304 304 304 304 304 304 303 303 304 305 305 305 306 307 308 309 309 310 310 310 312 314 315 316 316 314 314 316 317 317 316 316 317 317 316 317 317 317 317 317 316 316 317 317 318 317 317 317 317 317 317 318 318 317 317 317 316 316 316 315 315 316 315 315 316 316 315 315 315 315 315 315 315 315 314 315 315 316 316
301 301 302 302 302 301 302 303 304 303 303 304 304 303 303 304 304 304 304 305 305 306 307 308 309 309 310 312 314 314 314 314 314 314 316 317 317 316 315 316 316 317 317 317 317 316 317 317 316 315 316 316 316 316 316 316 316 317 317 317 317 316 316 316 316 316 316 316 316 316 316 316 316 316 315 315 316 315 316 315 315 315 315 315 316 316 316
301 301 302 302 302 301 303 304 304 303 303 304 303 303 302 303 303 303 304 304 304 305 307 307 308 308 310 312 313 314 313 313 313 313 315 316 316 315 316 316 316 316 316 316 316 317 318 317 316 316 316 316 316 317 316 316 316 317 316 316 317 317 317 317 317 317 317 317 316 316 316 316 316 316 316 316 316 316 316 315 316 316 316 315 315 316 316
301 301 302 302 301 303 304 304 304 303 303 303 303 302 302 303 304 304 305 305 305 305 306 306 307 307 308 310 312 314 314 314 315 315 314 314 314 314 314 315 314 315 315 315 315 316 318 318 317 317 317 316 316 317 317 316 317 317 317 317 317 317 317 317 317 317 317 316 316 316 316 316 315 315 315 315 315 315 315 315 315 316 316 316 316 316 317
301 302 302 301 302 303 304 304 303 303 303 302 303 303 303 304 304 304 305 306 306 306 305 305 306 307 307 308 311 314 313 313 315 315 312 312 313 314 314 314 313 313 314 315 314 315 316 317 317 318 317 317 317 317 317 317 318 317 317 317 317 317 317 316 316 316 315 315 315 315 315 316 316 316 316 316 316 316 315 315 315 315 315 315 316 317 316
301 301 302 303 303 303 303 303 303 303 302 302 303 303 303 304 304 304 305 307 307 307 306 306 307 308 308 308 310 312 313 313 314 312 310 311 313 313 313 313 313 313 314 315 313 314 316 316 316 317 316 316 317 316 316 317 317 317 317 317 316 316 315 314 314 315 314 314 315 315 315 316 316 316 316 316 316 316 316 316 316 316 315 315 315 315 315
301 302 302 303 302 302 302 302 302 302 302 302 303 304 304 304 304 304 305 306 306 307 308 308 308 309 310 312 312 312 312 311 311 311 309 310 310 310 311 312 313 313 314 313 313 315 315 315 316 316 316 316 317 316 316 317 316 316 316 316 315 315 315 314 314 314 314 314 315 315 315 315 316 315 315 315 315 316 316 316 316 316 315 315 315 314 315
302 302 301 301 301 301 302 302 302 302 303 303 303 303 304 304 304 304 304 306 306 307 308 309 309 309 311 314 314 312 310 309 309 309 309 309 309 309 310 311 312 312 312 312 312 314 314 314 314 315 315 315 316 316 317 318 317 316 316 316 315 315 315 314 314 314 314 314 315 314 315 315 315 315 315 315 315 315 316 315 316 316 315 315 315 315 314
301 300 300 301 301 301 302 303 302 302 303 303 303 303 304 304 304 304 304 306 306 306 307 309 309 309 311 312 311 310 308 308 308 308 308 308 308 309 310 311 311 310 311 311 312 313 313 313 313 313 314 315 316 316 317 317 317 316 316 316 315 315 315 314 314 314 314 314 314 314 314 315 315 315 315 315 315 315 316 315 315 316 316 316 316 315 315
300 300 300 301 302 302 302 303 303 303 303 303 303 303 303 303 304 304 304 305 305 306 307 308 309 309 310 310 309 308 308 307 307 307 308 308 309 309 309 309 310 311 311 312 312 312 312 312 312 313 316 317 317 317 318 317 316 315 315 315 315 314 314 314 314 314 314 314 314 314 314 314 315 315 315 315 315 315 315 315 315 316 316 316 316 316 316
300 300 299 301 302 302 301 302 303 303 303 303 303 303 303 303 304 304 304 305 305 306 307 308 309 310 310 309 308 308 308 307 308 308 307 308 309 310 308 308 310 310 312 313 313 312 311 311 312 314 316 317 317 317 317 317 315 314 314 314 314 314 313 313 313 314 314 314 314 314 314 314 313 313 314 314 314 314 315 315 315 315 316 317 317 316 316
299 300 300 301 302 302 302 302 302 302 302 303 303 303 303 304 304 304 304 305 306 307 307 308 309 309 309 308 309 309 308 308 309 309 307 307 309 309 310 310 311 310 310 311 311 311 311 312 313 314 315 316 316 316 315 315 315 314 314 314 314 313 313 313 313 313 314 313 313 313 313 313 313 312 312 312 313 313 313 314 315 315 316 316 316 316 316
298 299 301 301 301 301 301 302 302 302 302 303 303 303 303 304 304 304 304 305 306 306 306 308 309 308 308 308 309 309 308 309 309 309 309 309 309 310 311 312 312 311 311 311 310 311 312 312 313 315 317 317 316 314 313 313 314 313 313 313 313 313 313 313 312 312 312 311 311 312 312 312 312 312 312 312 312 312 312 313 314 315 315 315 315 316 316
297 299 301 301 301 301 301 301 302 302 302 302 302 303 303 304 304 304 304 305 305 305 306 307 307 307 307 308 308 308 308 309 309 309 310 311 310 310 311 312 312 312 311 310 310 310 311 311 312 315 317 316 314 313 312 313 313 312 312 313 312 312 312 312 312 311 311 311 311 312 312 312 312 312 312 312 312 312 312 312 313 313 314 314 314 315 315
298 300 301 301 301 301 301 301 302 302 303 303 303 303 303 303 304 305 305 304 304 305 305 306 306 307 307 307 308 309 309 309 308 309 310 311 310 310 311 311 311 310 310 310 310 310 310 311 313 314 314 313 313 313 312 312 312 312 312 312 311 311 311 311 311 311 311 311 312 312 312 312 312 313 312 313 313 313 313 313 312 312 313 313 313 314 315
299 300 301 301 301 301 302 302 302 303 304 304 304 304 305 304 304 304 305 305 305 305 305 305 305 306 306 307 308 308 307 308 308 309 310 309 309 309 310 310 309 309 309 309 309 309 310 311 314 314 312 311 312 312 312 312 312 312 311 311 311 311 311 311 311 311 311 311 312 312 312 312 312 312 312 313 313 313 314 314 313 313 313 313 313 314 315
Wind_Speed
17 18 18 20 21 22 25 26 26 27 26 23 21 14 5 5 2 4 8 7 6 4 6 5 6 6 4 3 1 2 2 4 2 3 5 4 2 1 0 1 1 1 2 3 2 1 3 4 3 1 3 7 7 5 3 2 3 4 5 5 4 2 2 4 5 2 5 5 5 3 2 0 2 1 4 5 5 5 5 5 4 5 6 5 5 3 2
16 17 17 19 20 21 23 24 24 24 22 22 19 10 4 5 4 2 6 7 6 5 6 6 6 6 4 4 3 0 2 4 2 1 5 4 1 2 2 2 1 0 2 0 1 0 2 4 3 3 2 7 5 3 3 2 3 3 5 5 3 3 2 3 6 3 4 5 2 2 2 0 0 3 5 4 4 6 5 5 4 4 5 6 5 5 3
15 16 17 18 19 20 21 22 22 21 19 18 13 6 5 5 5 3 5 8 6 6 7 6 5 6 5 6 5 4 4 4 4 5 3 2 1 1 1 3 3 1 2 1 1 1 2 3 2 2 1 5 4 2 3 0 4 8 7 6 4 3 4 4 5 4 2 2 1 1 2 2 2 4 4 3 4 5 4 5 4 3 6 7 5 4 6
14 15 16 18 18 20 20 20 20 19 17 17 12 7 5 3 4 4 4 7 6 6 7 7 7 7 7 5 6 7 6 4 3 6 4 0 1 2 1 2 4 3 1 1 2 3 4 3 2 2 1 3 4 2 2 3 7 9 7 4 3 3 4 4 3 4 4 3 3 3 4 5 3 3 5 4 4 4 4 4 4 4 7 6 3 7 10
12 14 16 17 18 19 20 19 19 17 16 16 12 6 5 3 4 4 2 3 5 6 7 8 7 7 6 4 4 7 8 4 5 5 3 1 3 4 3 1 3 3 2 2 3 3 6 4 3 4 3 3 5 2 2 3 8 6 1 2 1 4 4 2 2 4 4 3 3 3 4 4 3 4 5 3 4 5 3 4 5 6 6 6 5 12 12
11 12 14 16 18 19 19 19 19 17 14 13 10 4 4 4 4 3 2 1 5 5 5 6 8 9 8 4 3 7 9 6 5 4 4 4 3 4 4 4 4 4 5 3 2 3 4 3 2 5 3 4 4 2 2 3 8 4 3 3 2 4 5 1 1 4 4 2 2 2 3 3 3 4 4 4 5 4 2 4 7 6 5 7 10 14 13
11 11 13 15 17 18 19 19 18 16 14 10 7 4 4 4 5 4 5 4 7 5 6 7 9 10 8 6 5 7 8 8 6 5 4 5 4 5 4 4 7 6 7 4 3 3 3 2 2 5 3 2 3 2 2 4 8 4 3 2 1 2 3 2 2 4 5 5 4 2 3 4 4 5 6 5 3 2 3 4 7 6 6 9 11 13 14
10 10 11 14 16 18 19 18 17 16 14 9 5 6 4 4 4 5 7 7 7 7 7 7 7 7 6 6 7 7 8 9 6 5 5 5 4 6 6 5 8 8 8 7 5 4 3 2 2 3 4 2 2 3 3 3 6 4 3 2 1 1 1 3 3 5 6 7 7 5 4 6 6 6 6 2 3 4 1 2 3 4 6 8 9 11 12
10 10 10 12 15 17 18 18 16 14 12 8 5 5 6 7 4 3 4 6 7 7 6 6 6 6 6 6 7 7 8 9 8 5 6 6 5 5 7 7 7 7 6 8 6 4 2 2 3 3 4 4 3 3 3 2 4 4 3 3 3 2 2 2 2 5 6 5 8 6 5 7 9 9 7 4 5 2 1 2 3 4 3 5 6 7 8
9 9 10 11 14 15 16 17 15 11 9 7 6 6 10 9 5 3 3 6 7 7 7 6 6 6 6 7 7 8 8 9 8 5 6 6 7 5 5 5 5 5 5 5 4 2 1 2 3 3 4 6 5 3 3 2 3 3 4 4 3 4 4 3 3 5 4 3 6 4 4 6 7 6 7 9 6 5 5 5 6 7 6 3 4 6 6
8 8 9 10 12 14 14 15 15 11 8 7 7 8 10 9 6 4 4 5 6 7 8 6 6 7 8 10 10 9 10 10 9 7 5 5 7 6 4 3 4 4 1 2 3 3 3 1 3 5 7 8 7 6 5 5 4 4 3 4 4 5 5 5 4 5 5 2 4 3 5 6 2 1 5 9 8 8 7 7 9 8 7 7 8 8 8
7 7 8 9 11 12 13 13 13 11 7 5 6 9 8 8 7 5 4 5 6 7 7 7 8 8 9 12 11 10 11 11 9 8 6 5 6 6 4 3 4 2 3 5 5 5 2 3 5 7 8 9 8 8 8 7 6 5 5 5 4 5 5 5 4 4 5 6 3 4 5 3 3 5 6 6 6 6 6 7 9 9 9 10 10 10 10
7 7 7 8 9 11 12 12 12 10 7 5 5 8 8 8 7 5 3 5 7 7 7 9 12 12 12 13 12 10 11 10 9 8 7 6 5 5 4 5 5 2 3 3 3 2 2 4 5 7 8 8 8 9 10 10 8 7 6 6 5 4 4 4 4 4 4 5 4 4 3 4 8 7 6 5 3 4 4 7 8 9 9 10 9 9 8
7 7 7 7 9 10 11 12 12 10 8 5 6 8 9 8 6 5 4 4 6 6 7 9 10 11 13 13 10 9 10 10 9 7 6 6 5 6 6 5 3 4 3 2 2 2 3 4 4 4 6 6 6 7 9 10 10 9 9 7 5 5 4 4 4 4 4 5 5 6 5 4 7 7 6 5 3 2 2 4 7 8 8 8 7 6 5
7 7 7 7 8 9 10 11 11 10 8 6 6 8 8 7 5 6 5 4 5 6 7 8 9 10 11 11 9 8 8 9 8 6 4 5 5 6 7 6 4 4 4 3 3 4 4 4 4 4 5 5 5 5 6 7 8 9 8 7 6 6 5 5 4 4 4 5 5 5 7 5 4 7 7 5 3 2 1 3 6 8 9 8 6 4 3
8 7 7 7 7 8 9 10 10 10 9 6 5 8 9 6 5 6 7 5 5 5 6 7 9 11 9 9 8 8 8 8 7 5 5 6 8 7 6 6 6 5 5 4 4 4 4 5 5 5 5 6 6 5 5 5 5 7 7 7 8 8 6 5 5 5 4 5 6 5 5 3 5 10 9 6 5 3 1 4 5 3 6 8 6 3 2
8 8 7 7 7 8 9 9 9 9 9 7 6 9 8 6 5 6 6 5 5 7 9 10 11 9 6 6 7 7 8 7 6 6 6 7 9 9 7 7 6 7 7 6 4 5 5 5 5 6 6 6 7 6 5 5 5 7 8 7 9 8 6 5 6 6 6 6 6 4 5 4 5 11 10 7 7 4 1 4 2 3 5 6 5 3 3
9 9 8 7 7 7 8 9 8 8 8 7 7 9 8 6 6 6 4 5 6 6 10 13 11 8 6 6 7 6 6 6 6 7 7 7 8 9 9 7 6 8 8 6 4 5 6 5 6 6 6 7 7 6 5 5 6 7 9 8 8 7 6 5 6 7 7 7 6 5 6 3 5 12 11 9 7 3 3 2 1 3 3 4 3 3 3
9 9 8 7 7 7 8 9 8 7 7 7 6 8 8 4 3 4 4 5 6 5 9 13 11 8 8 8 8 7 7 7 7 6 6 6 7 9 9 7 6 6 6 6 5 5 5 6 6 5 6 7 7 5 4 5 5 6 9 9 7 6 6 6 6 7 6 6 6 6 5 1 7 11 11 9 5 2 1 1 1 2 2 1 2 3 3
11 10 9 8 8 8 8 8 7 6 6 7 6 8 9 5 3 4 5 5 6 7 10 11 10 9 9 9 8 7 6 6 7 7 7 6 5 7 8 6 6 6 5 6 6 5 5 6 6 5 6 6 5 4 6 8 8 8 8 8 7 7 6 6 6 6 6 6 6 7 5 3 10 11 8 6 4 1 4 1 2 2 1 2 3 3 4
12 11 10 9 9 8 7 7 7 6 5 6 6 8 9 7 6 5 6 6 6 5 7 8 12 14 14 12 11 11 9 7 6 5 6 7 4 2 4 6 7 5 4 5 5 5 5 5 5 5 5 6 3 3 5 7 7 9 9 7 6 7 7 6 6 6 6 6 5 3 2 5 11 9 5 7 7 2 3 2 4 3 2 3 3 4 5
13 12 11 10 9 8 8 7 7 6 5 5 6 8 8 7 6 5 6 8 9 9 12 17 20 20 19 18 16 14 13 12 11 8 7 7 6 5 4 7 9 6 4 5 6 5 5 5 5 5 6 6 5 5 6 5 5 7 9 7 5 4 5 3 3 5 5 5 2 2 4 7 9 6 2 2 5 4 3 3 4 4 4 3 4 4 3
13 12 12 11 10 9 8 7 7 6 6 5 6 8 9 8 7 6 6 9 10 12 17 21 21 18 18 20 20 18 17 18 16 11 8 6 5 6 6 5 5 5 4 3 4 5 5 5 5 5 6 6 6 6 7 6 5 6 7 7 5 5 2 1 2 4 5 5 4 2 2 6 9 8 5 4 4 5 4 4 5 5 5 4 4 4 4
13 13 12 12 10 9 7 6 6 6 6 5 5 8 10 10 8 8 8 8 7 7 10 12 11 10 13 17 19 19 20 21 19 14 9 5 4 5 5 3 3 3 2 4 4 3 2 3 3 3 4 5 5 6 6 6 6 6 6 5 7 9 7 4 4 6 5 4 4 5 4 3 5 7 7 7 7 6 5 5 5 5 5 5 4 4 5
14 13 13 12 10 9 8 6 6 6 7 6 5 7 9 9 6 8 9 7 5 5 6 6 7 10 14 17 18 17 16 16 16 15 13 10 8 7 6 6 5 3 3 6 5 2 2 2 3 4 4 4 4 5 6 5 5 5 5 6 5 5 6 7 7 7 6 6 6 6 5 5 5 6 7 7 8 7 6 6 6 5 6 5 5 5 5
13 13 13 12 10 9 8 7 7 7 7 6 5 6 8 9 8 7 8 7 5 5 6 6 8 11 13 13 14 14 12 12 14 15 15 14 13 11 9 7 5 4 4 5 4 3 2 3 4 5 5 3 3 4 6 6 5 4 4 2 1 2 2 5 6 6 7 7 8 8 9 9 9 8 6 5 6 6 5 4 5 6 6 7 7 7 6
13 13 13 11 9 8 8 7 7 7 7 7 6 6 9 10 9 7 6 6 4 4 5 5 6 9 13 14 12 12 13 14 14 14 13 14 15 14 10 6 5 5 5 4 3 3 3 4 5 6 6 4 4 5 5 5 6 6 5 3 3 3 5 5 5 5 6 6 5 5 6 7 7 4 4 5 4 4 4 5 6 7 7 7 7 7 7
14 13 12 11 9 8 8 7 7 7 7 6 6 8 10 10 10 8 5 5 4 3 3 4 6 11 15 14 12 13 13 12 12 12 14 15 16 16 13 9 7 6 5 5 4 4 5 5 5 5 5 5 6 5 5 5 6 6 6 5 4 4 5 5 5 6 6 6 7 6 5 6 6 6 6 6 5 5 5 6 7 8 8 8 8 8 8
14 13 12 10 9 8 7 6 7 7 6 5 7 9 9 9 8 7 5 4 4 4 4 5 7 9 10 8 8 11 12 12 13 13 15 15 15 16 15 11 8 7 6 6 5 5 5 5 6 6 4 2 3 5 5 6 6 7 7 8 7 6 6 7 8 8 9 10 10 8 6 7 7 8 8 7 6 6 7 8 9 9 10 9 9 8 8
14 13 12 10 8 8 6 6 7 7 5 5 7 7 6 5 5 5 6 6 4 3 3 3 4 6 9 11 11 9 10 12 13 14 15 15 14 14 14 12 8 7 7 6 6 6 5 4 5 7 5 3 3 5 6 6 7 7 8 10 9 8 8 8 8 8 9 10 10 9 9 9 9 9 10 9 8 8 8 8 9 10 10 11 9 8 9
14 12 11 9 8 7 6 6 7 7 6 6 7 5 3 2 1 2 6 8 6 2 2 3 4 5 7 9 11 10 11 13 13 12 13 13 12 14 15 13 9 8 8 6 6 7 6 5 6 8 8 7 5 5 6 7 7 7 8 8 7 7 8 8 7 8 9 9 10 11 11 10 10 10 11 10 10 9 8 8 9 10 10 11 12 11 11
13 11 10 9 8 7 6 5 6 7 8 9 9 7 5 4 5 5 3 6 6 2 1 2 3 4 3 5 9 13 15 14 11 9 10 10 10 11 13 11 8 8 8 7 5 6 6 5 6 8 8 6 5 5 8 9 8 8 9 10 8 8 8 8 7 8 9 9 10 10 10 10 10 11 11 10 10 9 9 10 12 13 13 12 14 15 14
12 9 8 8 7 7 6 6 6 7 9 10 11 11 10 9 9 6 3 5 4 3 3 1 2 4 3 5 7 11 14 11 7 6 7 8 7 7 8 8 8 7 8 7 5 4 5 5 6 8 8 6 5 6 8 9 9 10 12 13 11 10 11 10 9 10 10 10 10 10 10 10 11 11 11 11 10 10 12 13 13 13 12 11 12 13 13
11 8 6 6 7 8 8 7 7 7 8 9 10 8 6 6 6 5 6 5 2 3 3 2 2 3 4 6 7 5 10 7 5 5 5 6 7 7 6 5 5 5 7 7 5 4 6 6 5 7 7 6 6 7 7 9 11 12 13 13 12 11 11 11 11 11 11 11 11 11 11 12 11 10 11 11 10 11 14 14 12 11 11 11 10 11 11
11 8 6 6 7 8 8 8 8 8 7 8 9 5 3 3 4 5 7 6 3 1 2 3 3 3 3 4 5 3 6 5 5 4 4 5 7 7 5 5 5 5 5 5 5 5 6 5 5 6 7 6 7 7 7 9 13 13 12 13 12 11 11 11 11 11 11 11 10 11 12 12 12 10 10 11 11 12 12 13 13 12 12 11 11 11 10
13 10 8 8 8 8 7 8 9 9 6 6 7 5 3 3 3 6 8 7 6 4 2 3 4 4 4 3 3 1 2 3 4 4 4 4 4 4 3 4 5 5 4 4 6 7 6 5 5 6 7 7 8 7 7 10 14 14 13 12 11 11 11 11 11 11 11 12 13 13 12 13 13 11 10 11 11 11 12 12 12 12 12 11 11 10 9
14 11 10 8 7 6 6 7 10 10 8 5 4 4 3 2 2 5 7 7 7 6 3 2 4 5 5 4 2 2 2 2 3 4 4 3 3 2 1 2 3 4 5 6 7 6 6 6 6 7 7 8 8 8 8 10 12 11 11 11 10 10 10 11 11 11 12 13 14 13 12 13 13 12 11 11 11 11 11 11 10 10 11 11 10 9 9
15 13 11 8 5 4 5 6 9 11 9 6 3 2 2 1 2 3 4 4 5 6 4 4 5 5 4 5 4 4 4 3 3 2 2 3 2 2 1 2 2 2 4 5 6 6 5 6 6 7 8 9 10 10 10 10 9 8 9 9 9 9 10 10 10 11 11 11 11 11 11 11 12 11 11 11 12 11 10 9 8 9 10 10 10 11 11
17 13 10 8 6 4 2 4 7 10 9 7 4 2 1 2 2 3 3 4 4 5 5 6 7 6 6 6 5 2 2 2 4 4 3 2 2 1 2 2 1 1 4 5 5 6 6 5 5 6 8 9 10 11 11 10 10 10 9 9 9 10 10 10 10 10 9 9 9 9 9 10 11 10 10 10 10 10 9 8 9 10 10 11 12 12 11
17 12 7 6 7 6 3 5 9 9 7 5 3 2 2 3 3 3 3 4 5 5 5 6 6 6 7 7 5 2 2 1 2 2 2 3 4 2 1 2 2 2 5 6 4 5 6 6 6 7 8 7 9 10 11 12 13 11 10 10 10 10 10 9 8 8 9 9 9 10 10 11 11 11 11 10 10 10 10 10 10 11 12 13 13 12 12
15 11 6 6 8 8 7 9 10 6 3 2 3 2 2 3 3 2 3 5 5 4 4 5 6 7 7 7 6 3 1 2 1 0 1 3 3 2 1 2 2 2 4 6 4 4 5 6 6 7 7 6 7 9 10 11 11 9 9 10 9 7 6 7 7 8 9 9 9 9 11 12 11 10 10 10 10 9 9 9 10 13 15 14 13 13 14
14 10 5 3 6 9 8 6 5 3 1 2 3 2 3 4 4 3 4 4 4 3 4 6 7 6 6 7 5 2 1 1 1 1 0 2 2 2 1 2 2 3 4 4 2 3 5 6 7 7 6 6 7 8 9 8 7 8 8 6 3 1 4 6 8 10 11 11 10 9 10 11 10 10 12 12 12 11 11 11 11 13 16 16 16 16 16
14 12 6 3 5 6 5 3 3 3 2 2 3 3 4 4 4 4 4 3 3 4 4 4 2 0 2 4 2 1 1 2 1 1 1 1 2 1 1 2 3 3 3 3 3 3 4 6 7 7 6 6 7 8 9 8 8 7 4 2 2 3 7 9 10 12 13 13 12 12 11 12 12 13 14 15 14 13 13 14 14 15 16 16 17 17 17
11 7 4 2 1 3 3 3 3 4 5 5 4 5 6 6 5 5 5 4 4 4 4 4 3 2 2 2 1 2 2 1 1 1 1 1 1 1 2 3 3 3 3 3 3 3 4 5 6 6 7 6 6 6 6 5 5 5 4 4 5 8 10 10 11 12 12 12 13 12 12 13 14 14 15 15 15 14 14 14 15 16 16 16 17 17 18
7 4 3 3 2 2 2 2 3 4 6 6 5 5 6 6 7 7 6 4 3 4 5 5 5 5 4 2 1 1 1 2 2 2 2 1 2 3 3 2 2 2 2 2 4 5 6 6 6 7 9 7 4 5 7 5 4 4 5 6 7 9 9 9 11 11 9 9 11 11 11 12 13 14 14 15 16 16 15 15 15 15 16 16 16 17 17
4 2 3 3 3 3 3 3 4 4 4 5 6 7 7 7 7 6 5 4 5 5 6 6 6 6 5 4 2 2 2 3 3 3 2 2 2 3 2 2 2 2 3 4 6 7 7 7 7 8 7 4 3 4 5 2 2 2 3 3 5 7 9 9 9 9 9 11 12 12 11 11 13 14 14 15 15 16 16 16 15 15 15 15 14 15 16
3 3 2 2 3 4 4 5 5 5 5 5 7 8 8 8 7 6 5 5 5 4 3 5 4 3 4 4 4 3 4 4 3 3 3 2 2 2 2 3 3 3 4 6 7 7 6 7 7 6 5 5 4 5 4 2 2 3 4 4 5 7 8 9 9 9 10 11 12 11 11 12 14 15 15 15 15 16 16 16 16 15 15 15 15 15 16
1 3 3 2 3 4 6 7 6 6 7 8 8 8 8 7 7 7 7 5 3 1 2 3 2 1 2 4 4 4 4 4 4 4 3 3 3 3 3 3 5 5 5 6 7 7 6 6 5 5 6 5 4 4 3 2 3 5 6 6 6 6 7 8 9 10 11 11 11 11 12 14 15 16 16 15 16 17 17 17 17 17 16 16 16 17 17
2 3 3 3 3 4 6 7 8 8 9 8 7 7 7 7 8 8 6 4 4 4 5 4 3 2 2 3 3 3 4 4 4 3 3 4 4 3 3 5 6 6 6 6 6 6 5 4 4 5 5 4 3 3 4 3 1 3 4 5 6 6 7 8 9 10 12 13 13 14 15 16 16 16 16 15 15 17 18 18 18 17 17 17 17 17 17
3 4 4 5 6 6 6 7 8 9 9 9 8 7 7 7 7 7 6 4 3 4 5 4 3 2 2 3 3 3 4 4 3 4 5 5 5 4 5 6 6 5 4 4 5 6 5 3 4 4 4 4 3 5 5 3 1 2 3 5 7 9 10 12 13 13 14 15 16 16 17 17 17 16 16 15 16 18 19 19 18 18 19 19 18 18 18
4 5 5 6 7 7 6 7 7 7 7 8 8 7 6 7 7 5 4 4 3 4 5 5 4 3 3 4 3 3 3 3 3 5 6 6 5 5 6 7 6 4 4 5 5 6 4 1 2 3 4 6 6 6 4 2 1 2 4 6 9 11 13 14 15 14 15 16 17 17 18 18 18 17 17 18 18 17 17 17 18 18 19 19 19 18 18
4 5 5 6 7 7 8 8 6 5 6 6 4 4 5 6 5 5 4 4 4 4 5 4 4 4 4 4 4 3 2 3 4 6 7 6 5 6 7 7 6 6 6 6 5 3 2 3 3 2 2 4 6 7 6 4 4 4 5 7 10 12 13 13 14 14 15 15 16 17 18 18 19 20 19 18 16 14 12 13 16 19 20 21 19 17 16
Wind_Direction
324 326 329 333 337 342 348 353 353 351 353 356 355 345 289 253 295 139 163 180 181 231 257 241 249 248 246 286 323 94 253 246 184 151 195 242 278 182 172 84 102 323 18 15 332 299 294 313 354 22 84 80 77 88 68 316 269 294 335 55 65 339 264 266 284 207 145 122 96 86 76 88 203 143 37 7 2 8 339 318 329 317 308 320 321 319 85
323 325 328 333 336 343 349 354 356 354 355 357 351 336 300 304 309 166 167 183 192 227 244 238 246 245 239 261 269 275 259 260 275 196 201 208 240 244 222 127 111 39 90 49 292 120 288 306 332 325 36 92 93 87 95 298 308 18 19 19 13 308 291 298 294 262 146 127 126 147 130 313 170 75 52 31 9 359 333 307 286 282 336 357 321 306 38
321 324 327 330 335 343 349 353 357 354 352 354 348 315 304 309 281 234 175 185 204 231 246 264 287 283 261 248 252 246 238 257 297 303 264 209 206 262 226 128 126 109 100 140 235 184 252 291 290 290 25 105 122 99 109 332 8 55 48 1 333 311 314 316 311 319 1 46 359 27 20 354 58 57 36 31 18 359 336 318 293 291 351 349 314 319 354
319 322 324 329 334 341 347 352 355 353 349 349 342 300 293 310 268 248 186 184 207 238 258 276 289 291 281 256 249 251 236 205 237 279 292 321 298 304 333 118 132 124 99 172 221 208 217 263 281 245 226 106 110 127 161 114 73 62 41 352 316 294 287 284 299 321 343 15 23 14 348 341 10 12 351 356 354 335 324 310 302 336 335 312 348 12 344
317 319 320 328 334 337 343 350 353 352 347 346 339 290 258 285 285 278 216 193 214 224 242 251 246 260 279 270 233 244 248 205 178 221 256 279 264 257 261 238 161 150 169 229 242 219 207 222 277 271 232 109 98 130 250 114 103 88 15 210 233 286 267 223 232 279 300 346 3 351 336 331 335 331 328 326 307 306 318 295 296 331 323 281 339 357 336
314 317 319 326 331 335 341 346 349 350 346 342 336 291 250 276 289 313 16 265 234 225 243 257 249 245 253 264 241 237 245 229 172 180 245 268 254 236 236 251 240 185 168 210 248 241 232 210 235 266 232 130 118 164 237 160 131 132 244 188 155 292 279 161 156 256 271 278 278 300 310 307 306 304 299 292 282 265 226 259 282 298 288 281 317 331 318
309 316 319 324 329 333 338 343 348 349 342 331 316 287 294 314 307 336 2 305 274 293 320 306 276 251 240 241 241 238 244 239 198 177 236 257 238 238 240 248 258 220 167 183 235 216 237 247 231 263 268 131 139 204 219 159 140 157 246 189 99 298 299 13 341 280 266 247 244 256 276 284 284 278 279 285 305 286 221 244 273 284 286 290 305 308 298
306 314 318 322 327 332 336 341 347 349 342 328 281 257 287 341 339 339 342 316 289 296 306 298 281 263 250 243 239 236 241 245 226 185 204 234 228 240 247 245 260 243 178 175 224 215 211 254 247 257 275 264 200 231 249 174 158 185 214 167 139 226 317 355 311 282 265 232 219 224 250 270 271 268 271 278 48 30 354 266 278 289 292 290 297 298 289
302 310 316 320 326 331 336 341 348 353 350 335 286 275 325 342 321 299 311 309 303 295 274 258 264 264 251 242 240 239 236 242 243 206 189 218 229 234 245 247 261 261 205 182 210 233 212 232 239 225 234 240 221 223 253 197 178 196 202 178 175 200 272 290 243 274 282 221 200 221 255 265 263 254 234 178 121 108 222 204 209 202 223 278 291 284 278
295 303 312 319 325 330 336 341 350 358 357 342 310 320 356 349 310 269 278 285 297 296 270 244 244 250 252 248 238 236 240 242 242 219 183 209 236 244 252 255 261 265 241 199 203 222 184 229 277 276 250 251 245 239 266 263 218 210 198 191 196 217 252 263 240 272 292 172 171 216 268 265 268 254 203 178 171 199 214 221 225 204 186 220 264 261 281
285 294 307 318 323 330 334 341 353 359 3 4 330 320 352 354 318 306 302 278 277 281 272 255 241 237 245 249 237 226 234 237 235 227 197 198 234 254 260 260 263 266 288 68 81 80 74 327 284 281 275 272 263 248 252 258 255 245 213 198 215 236 252 267 271 278 287 237 175 208 260 261 270 103 162 177 192 208 212 224 236 229 210 218 240 260 287
274 285 302 315 321 329 333 339 355 359 354 360 321 303 336 352 316 290 279 275 277 274 267 262 260 255 250 252 251 237 229 230 229 223 207 194 219 237 238 231 244 252 73 77 85 84 43 281 251 249 259 264 260 251 245 241 239 241 237 226 220 229 245 266 280 277 287 298 280 248 261 240 137 132 146 163 196 221 235 249 250 250 247 244 250 259 268
266 275 295 314 321 330 334 337 351 356 345 335 309 302 328 343 314 278 270 278 274 271 273 269 262 256 248 247 255 254 240 234 231 216 204 205 206 201 211 233 231 174 104 113 125 130 246 253 244 249 252 246 247 249 242 238 231 220 226 236 236 234 237 255 276 269 271 285 271 260 264 151 147 151 146 143 179 212 240 265 261 254 253 250 254 265 271
259 271 287 308 319 328 336 338 345 351 345 323 303 302 314 325 309 291 297 284 265 275 296 291 277 266 256 247 248 261 258 246 239 226 204 195 192 194 209 221 191 121 117 143 163 191 231 234 227 247 249 231 233 245 242 239 231 216 213 221 230 246 251 244 253 258 265 270 260 270 284 220 167 156 154 155 164 182 227 275 271 263 260 252 245 257 277
253 267 281 299 314 324 333 337 341 348 345 322 301 299 300 306 314 308 301 287 281 288 282 273 287 297 283 263 244 243 255 248 236 230 203 178 192 217 214 194 150 132 149 185 202 204 222 233 224 230 236 221 220 235 235 230 221 211 210 215 215 223 239 247 252 242 245 269 272 273 283 269 162 145 156 155 129 102 98 292 278 258 243 235 229 238 270
252 264 276 290 306 316 325 334 339 344 344 328 311 305 292 282 291 293 285 278 274 269 258 273 316 327 307 286 267 243 247 252 232 219 219 204 205 217 202 170 159 165 174 198 221 213 217 233 232 233 238 230 226 228 222 215 205 191 193 216 226 223 228 245 267 266 247 260 268 259 269 273 142 143 150 139 117 108 161 279 278 225 195 196 195 215 262
256 264 271 282 297 307 318 327 334 342 344 333 316 309 299 292 299 292 279 269 256 255 269 292 317 320 292 285 287 258 245 249 234 222 229 217 206 205 187 163 169 188 195 207 227 223 220 228 233 239 244 240 236 227 209 210 209 186 182 207 225 228 228 229 243 256 253 253 259 259 272 276 144 145 149 137 124 124 245 269 275 107 135 154 163 212 257
258 263 267 276 288 299 311 319 325 336 340 330 308 294 288 292 300 292 274 268 262 255 267 277 284 287 294 312 311 289 270 264 253 239 236 227 211 201 186 172 182 200 206 213 222 226 227 228 231 240 248 247 243 236 212 207 212 196 189 201 215 218 220 224 235 243 240 242 251 257 270 276 140 144 146 134 130 166 254 264 79 90 104 120 160 239 268
259 261 265 269 278 293 303 308 315 328 331 329 313 290 284 280 282 286 277 269 267 260 268 276 280 285 292 297 294 287 282 281 279 265 248 239 219 198 186 184 196 202 205 215 224 228 230 231 231 237 251 251 239 230 228 232 232 213 200 201 209 212 210 217 232 241 242 244 251 254 259 218 131 140 140 136 151 219 244 174 128 121 127 152 242 247 256
262 261 263 264 271 286 295 296 302 315 321 322 313 297 293 284 262 275 269 267 289 285 269 279 309 320 303 289 287 293 288 275 273 266 257 254 225 188 180 188 202 205 201 209 222 229 228 232 233 231 247 256 240 215 227 236 238 235 222 212 207 200 201 214 218 224 244 251 249 261 267 151 136 139 140 166 209 352 49 85 245 241 224 254 264 251 242
262 259 259 260 267 281 289 286 288 297 307 310 306 301 296 272 246 255 261 267 288 285 268 300 331 328 314 307 312 315 311 304 309 308 290 288 287 215 181 183 192 203 198 196 214 227 226 235 242 235 241 252 242 214 231 239 236 230 230 239 230 197 194 222 221 201 219 237 231 255 287 145 152 158 164 191 212 251 19 316 285 291 270 252 255 248 232
260 257 254 255 263 277 283 277 275 284 294 297 290 292 293 278 260 260 257 258 262 264 280 300 307 299 291 291 293 293 289 291 305 320 311 303 313 311 253 197 188 199 211 203 211 220 221 230 241 243 245 246 240 233 235 242 246 227 214 223 247 215 183 215 240 206 222 253 246 111 113 144 166 194 241 202 214 238 261 256 262 273 277 275 274 272 257
254 251 247 250 261 275 280 274 268 271 281 288 286 287 293 297 306 310 281 263 264 268 275 283 286 282 278 275 273 271 272 275 281 288 291 298 310 301 280 237 209 221 226 218 226 227 226 232 236 240 249 250 249 250 239 228 247 256 222 195 212 237 209 89 300 257 263 286 287 260 209 182 188 210 241 250 248 256 260 260 260 257 259 264 270 284 291
248 242 240 245 257 273 277 266 259 265 274 277 279 288 291 290 307 328 309 275 270 281 274 265 260 260 261 260 260 261 258 254 255 262 272 285 289 280 289 336 339 304 327 350 322 266 245 270 264 257 268 264 254 256 254 236 233 253 252 219 214 223 215 205 241 260 264 272 269 265 263 233 208 220 233 235 237 237 233 245 260 262 262 266 271 280 288
242 234 233 239 253 273 277 258 246 259 274 278 281 292 291 285 301 327 315 286 278 291 282 266 261 267 265 257 253 257 256 244 238 242 248 249 250 260 294 338 336 302 325 339 324 282 249 278 275 274 281 277 257 255 266 263 238 229 248 260 248 214 197 203 226 241 244 253 266 274 277 269 254 250 249 245 243 241 232 228 234 241 248 252 256 259 266
237 226 226 235 252 272 277 258 239 246 267 280 286 289 286 284 295 312 313 307 295 272 266 275 278 277 275 261 245 246 252 244 235 236 239 241 245 256 279 307 303 274 288 308 304 294 281 265 265 270 268 256 252 260 263 270 275 268 260 267 58 91 174 205 221 237 245 251 258 267 273 267 255 249 259 267 258 257 270 271 255 246 245 246 247 244 239
231 221 223 235 251 269 277 264 243 243 263 276 282 283 281 281 285 293 308 321 304 251 251 269 274 291 308 307 285 262 250 240 236 235 236 239 243 245 246 250 257 267 272 265 258 266 266 252 249 255 258 262 271 272 270 273 280 281 266 215 175 212 245 241 237 243 248 253 261 273 281 274 268 287 331 327 297 270 274 281 275 267 264 265 264 256 245
219 216 223 235 249 265 275 267 248 246 260 274 284 284 278 272 268 266 281 309 302 269 281 296 297 310 317 309 282 263 249 235 231 236 238 239 239 238 235 230 232 243 249 246 241 235 234 238 240 241 251 268 268 259 265 274 270 270 270 258 245 259 270 271 268 267 273 291 308 319 313 296 297 314 323 318 313 301 278 267 266 266 266 270 271 266 260
210 214 224 233 247 261 267 263 251 247 255 275 286 282 273 264 257 252 259 284 281 269 289 302 292 296 305 297 272 261 246 229 227 236 242 241 237 234 232 230 229 230 234 240 243 237 232 231 240 244 241 248 260 253 249 252 250 244 248 254 260 272 283 287 289 290 293 298 301 303 302 298 298 299 298 297 296 292 280 270 267 265 263 264 265 263 259
208 215 223 230 245 259 263 258 251 246 252 269 274 272 261 239 220 222 234 242 244 254 281 292 282 293 308 307 296 281 256 237 231 233 238 240 239 234 228 226 227 229 232 235 232 236 241 231 231 242 229 179 216 257 247 244 253 246 235 235 238 244 256 265 271 274 276 279 283 286 293 299 298 292 288 282 272 268 269 269 268 267 269 272 274 272 267
211 215 221 228 243 255 260 259 250 243 246 254 257 260 253 206 161 258 247 229 215 220 270 268 278 303 307 291 277 272 267 254 237 229 235 240 241 238 232 226 223 220 223 233 230 226 236 233 226 238 230 199 204 248 248 243 251 246 237 241 241 239 244 247 250 259 266 269 271 273 275 280 282 278 276 273 268 263 261 262 259 253 254 264 272 274 274
212 213 216 222 236 252 260 256 243 235 238 247 257 269 282 295 323 330 274 200 193 214 264 268 282 286 283 271 255 244 247 249 236 224 231 233 232 237 234 228 227 222 218 228 234 224 227 231 229 237 232 197 184 228 243 241 243 241 244 255 261 257 257 255 252 258 264 264 266 268 268 268 269 269 270 273 274 272 269 265 259 247 236 239 253 260 261
208 209 211 215 229 250 258 251 244 244 248 257 266 272 276 280 286 284 211 170 184 249 252 238 274 257 268 311 285 226 217 232 239 221 221 220 217 229 232 225 229 228 213 213 228 230 225 225 227 236 238 218 204 232 240 238 239 241 244 250 256 259 262 264 263 263 263 259 257 260 264 266 265 265 268 270 273 279 281 278 270 262 253 246 246 249 251
206 212 217 216 225 245 254 247 243 249 256 264 270 271 264 263 264 245 210 195 212 275 250 222 259 251 257 311 313 217 191 208 232 217 214 215 210 218 230 222 223 229 217 212 220 224 223 226 226 230 234 231 230 238 240 236 238 242 245 250 255 259 262 264 264 263 263 263 262 262 266 269 266 264 266 267 265 268 274 274 270 265 264 261 257 256 257
215 223 230 225 227 241 252 245 235 237 245 253 260 271 286 273 253 228 218 215 213 237 219 210 239 252 239 273 290 229 184 209 243 233 220 213 205 210 224 217 209 215 217 216 223 225 220 221 227 229 229 227 229 233 233 234 237 240 244 248 251 256 261 262 262 261 263 265 267 268 269 271 269 261 259 262 262 259 261 265 264 259 257 259 261 262 264
215 225 236 236 229 233 245 241 231 228 232 240 244 254 283 294 251 224 230 240 246 248 233 205 214 221 216 236 267 265 174 225 250 241 229 224 213 217 232 226 215 213 208 212 227 230 217 209 223 232 226 223 230 234 232 235 240 242 244 246 249 253 258 261 262 264 266 267 268 269 270 272 274 271 265 264 264 261 258 259 262 263 261 259 259 259 259
212 224 232 227 220 225 239 238 230 229 232 235 239 248 264 275 227 221 232 242 242 240 252 253 232 222 214 221 256 336 340 269 239 226 221 218 206 205 241 254 238 221 212 217 225 227 219 213 222 232 229 228 237 241 235 236 242 245 245 248 250 252 257 261 264 265 266 266 267 269 271 271 272 273 271 270 268 266 262 258 258 263 265 264 264 262 255
208 220 222 211 201 212 230 229 226 226 222 207 192 223 253 241 223 226 224 223 223 221 222 237 241 236 231 234 255 308 324 307 291 282 239 208 188 167 184 242 263 252 241 232 217 210 217 222 225 234 239 238 239 241 241 243 246 245 244 248 251 252 256 261 263 264 265 266 266 268 269 270 270 271 273 273 272 271 267 260 257 260 263 264 265 264 258
201 211 213 206 202 214 234 213 203 201 191 173 167 198 222 200 219 227 211 208 220 218 215 225 231 229 229 238 251 292 339 319 308 319 329 296 262 210 189 211 220 222 248 243 206 187 206 225 230 236 242 240 237 238 240 244 247 246 244 245 246 248 251 256 258 261 263 265 269 272 273 273 274 276 276 276 278 279 278 273 265 260 259 259 258 257 256
199 200 201 210 216 221 203 162 161 160 156 158 180 224 218 203 217 224 208 206 214 217 219 224 222 216 220 232 244 264 42 29 304 308 330 317 307 302 219 228 206 187 223 233 207 187 206 220 226 233 237 236 231 225 223 229 237 243 248 252 251 250 252 255 258 260 262 264 266 268 268 267 269 271 273 274 274 274 274 274 271 265 262 260 254 249 249
193 192 202 223 214 197 166 149 147 142 140 184 201 217 226 219 218 225 223 221 221 219 215 211 207 204 205 212 225 236 72 69 59 27 308 297 305 321 299 282 292 249 228 223 210 215 231 232 231 235 237 236 236 235 229 226 223 222 230 240 244 246 255 263 265 264 264 266 265 264 264 264 265 266 267 268 268 267 267 269 270 268 268 267 262 255 251
191 194 201 183 159 153 145 147 161 167 191 211 214 226 228 217 213 223 232 229 229 224 205 201 210 210 190 181 193 219 182 123 93 62 344 278 292 312 316 309 303 275 251 244 232 228 234 235 235 238 240 249 266 275 272 254 229 216 214 212 207 271 289 283 276 269 265 265 265 266 268 270 271 273 273 272 270 269 267 265 265 266 266 267 267 265 260
195 199 196 132 126 152 170 192 197 191 194 210 215 216 215 211 214 224 228 225 232 232 210 189 191 164 127 135 133 101 119 131 114 105 177 249 279 290 285 274 267 273 296 306 291 254 243 244 243 242 240 238 242 254 258 248 236 234 226 157 140 247 262 264 266 267 267 265 265 265 267 267 266 266 267 267 268 268 267 265 265 266 266 265 264 263 262
186 181 174 137 148 199 202 190 182 197 213 215 205 209 216 215 212 217 220 214 214 217 206 186 170 155 142 127 94 94 115 122 124 178 214 235 251 242 236 241 248 272 312 314 293 275 268 263 261 261 260 252 246 260 269 252 222 216 212 203 225 249 261 266 268 267 267 268 269 268 266 264 263 263 265 266 267 267 267 265 264 265 266 265 264 263 262
177 152 153 165 183 190 182 171 179 204 219 220 214 217 226 224 220 223 226 219 208 200 191 184 182 176 163 136 99 118 153 163 169 190 212 219 212 220 234 247 261 277 280 265 260 261 260 260 266 268 263 256 256 274 280 277 257 230 218 223 246 263 269 269 268 266 265 270 276 279 278 275 274 273 272 271 271 271 271 269 267 266 265 262 260 258 258
177 161 164 177 190 189 190 199 200 204 218 226 222 223 230 236 238 238 229 217 223 222 201 186 188 188 178 164 151 161 173 174 180 196 212 214 207 210 223 252 272 269 243 233 237 244 249 253 259 265 270 280 287 271 267 288 335 300 257 250 273 280 277 276 280 282 279 276 276 278 279 282 284 284 282 280 279 278 276 275 272 269 266 266 265 262 258
172 191 185 196 211 207 209 222 225 221 225 229 226 228 234 238 244 253 246 230 233 240 205 181 185 195 190 185 189 187 176 175 189 195 190 199 223 219 204 214 227 228 230 235 239 246 254 256 257 271 299 325 316 294 295 346 351 297 288 290 288 283 282 285 288 286 284 285 287 290 293 297 298 297 296 292 286 281 278 277 275 270 265 264 266 266 262
164 198 188 195 217 210 211 224 236 240 240 238 234 235 237 232 234 245 245 227 196 181 200 189 182 202 205 196 200 204 194 186 194 194 185 194 219 216 199 213 221 219 224 235 241 245 253 258 265 283 297 301 296 296 306 312 303 308 319 319 312 308 307 302 295 294 301 308 309 304 299 296 292 289 288 287 284 280 276 272 269 267 263 259 259 261 260
256 248 211 205 232 235 227 228 236 242 245 245 243 241 242 239 237 241 240 210 174 188 210 196 158 159 207 197 192 204 206 196 195 198 193 200 212 213 210 220 225 222 221 233 244 253 262 272 280 278 274 273 280 270 251 241 276 354 356 340 327 322 314 300 293 298 306 309 306 300 295 293 289 286 284 283 282 280 277 272 266 264 263 259 256 255 256
233 251 231 216 225 235 235 234 237 240 243 244 240 235 237 242 246 252 254 236 201 204 213 194 160 168 211 212 200 205 204 197 200 207 206 204 210 219 224 226 230 231 232 238 250 262 272 299 335 337 340 355 336 287 261 252 13 23 348 315 305 299 294 293 295 299 302 302 300 297 293 289 285 282 280 278 278 279 280 279 274 269 266 263 258 253 252
211 234 238 232 232 238 241 243 246 251 254 253 248 241 237 237 238 241 247 248 238 229 222 211 199 199 212 216 216 212 196 184 196 215 219 215 209 215 227 234 239 246 249 248 252 256 258 258 61 37 11 358 341 315 293 279 271 269 278 288 294 295 295 296 296 298 300 301 300 299 296 293 291 289 288 288 286 283 281 280 278 275 273 270 262 254 251
217 221 231 237 240 245 250 252 261 274 273 268 277 294 288 270 249 228 216 218 229 234 230 222 218 220 221 220 221 221 212 205 212 219 224 225 220 222 231 237 239 241 249 254 257 273 342 28 43 46 25 2 347 336 328 314 290 280 289 297 297 295 294 293 293 295 298 299 297 296 297 298 297 294 290 289 288 286 283 282 280 278 277 273 265 256 254